Regional Weather Roundup
Issued by NWS Charleston, SC

Current Version | Previous Version | Graphics & Text | Print | Product List | Glossary On
Versions: 1 2 3 4 5 6 7 8 9 10 11 12 13 14 15 16 17 18 19 20 21 22 23 24 25 26 27 28 29 30 31 32 33 34 35 36 37 38 39 40 41 42 43 44 45 46 47 48 49 50
000
ASUS42 KCHS 221610
RWRCHS

REGIONAL WEATHER ROUNDUP
NATIONAL WEATHER SERVICE CHARLESTON SC
1200 PM EDT MON SEP 22 2014

NOTE: "FAIR" INDICATES FEW OR NO CLOUDS BELOW 12,000 FEET WITH NO
SIGNIFICANT WEATHER AND/OR OBSTRUCTIONS TO VISIBILITY.

NOT ALL STATIONS ARE QUALITY CONTROLLED BY THE NATIONAL
WEATHER SERVICE. USE DATA WITH CAUTION...ESPECIALLY
DEWPOINT OBSERVATIONS.

SCZ027-030-031-034>040-042>050-221700-
...SOUTH CAROLINA...

CITY           SKY/WX    TMP DP  RH WIND       PRES   REMARKS
N CHARLESTON   MOSUNNY   83  67  58 E3        30.01F
WATERFRONT PRK NOT AVBL
FORT JOHNSON   NOT AVBL
MOUNT PLEASANT FAIR      82  70  65 CALM      30.01F
JOHNS ISLAND   SUNNY     86  72  62 CALM      30.01F HX  92
PINOPOLIS        N/A     79  66  65 VRB9      29.93F
MONCKS CORNER    N/A     81  70  69 NE7       30.02S
SUMMERVILLE    FAIR      81  70  69 N7        30.02F
BEAUFORT MCAS  MOSUNNY   84  65  52 VRB7      30.01F
BEAUFORT ARPT  FAIR      82  68  61 SW5       30.01F
HILTON HEAD IS SUNNY     82  66  57 SW6       30.03F
GEORGETOWN     NOT AVBL
WALTERBORO     SUNNY     82  63  51 NE6       30.02F
ORANGEBURG     PTSUNNY   75  56  51 MISG      30.03F
BARNWELL       PTSUNNY   77  68  73 NE8       30.02F
AIKEN          LGT RAIN  70  61  73 E10G16    30.06F
MANNING        FAIR      77  64  65 E3        30.03F
KINGSTREE      NOT AVBL
COLUMBIA       CLOUDY    77  53  43 NE10      30.04S
SUMTER         DRIZZLE   77  58  52 NE12      30.02F
FLORENCE       MOSUNNY   78  61  55 NE12      30.02F
MYRTLE BEACH   PTSUNNY   79  61  53 NE13      30.01S
N MYRTLE BEACH MOSUNNY   78  63  59 N10       30.01F

$$

GAZ063-065-086>088-099>101-113>116-118-119-134-136>141-150-221700-
...GEORGIA...

CITY           SKY/WX    TMP DP  RH WIND       PRES   REMARKS
SAVANNAH ARPT  MOSUNNY   84  65  52 VRB7      30.02F
HUNTER AAF     SUNNY     84  66  53 W6        30.00F
FORT STEWART   SUNNY     85  64  49 SW8       30.01F
STATESBORO     NOT AVBL
SYLVANIA       MOSUNNY   87  72  60 CALM      30.02S HX  94
CLAXTON        PTSUNNY   84  70  61 CALM      30.01F
THOMSON        CLOUDY    70  67  91 NE6       30.11R
AUGUSTA-BUSH   CLOUDY    71  65  81 NE8       30.02S
AUGUSTA-DANIEL LGT RAIN  70  63  78 NE9       30.04S
SWAINSBORO     PTSUNNY   82  72  69 CALM      30.03S
VIDALIA        CLOUDY    82  68  61 W5        30.02F
ALMA           SUNNY     84  63  49 W7        30.03F
WAYCROSS       NOT AVBL
JESUP          FAIR      88  66  48 NW10      30.03F HX  90
BRUNSWICK      SUNNY     86  64  48 S6        30.03F
SAINT SIMONS   SUNNY     84  67  56 SW8       30.03F

$$

SCZ027-028-034-036>038-045-046-048>050-GAZ119-141-221700-
...LAKE AND SUPPLEMENTAL COASTAL OBSERVATIONS...

STATION/POSITION TIME  TEMP    WIND        PRES    WAVE   SWELL
                       AIR SEA DIR/SP/G            HT/PER HT/PER/DIR
                 (UTC) (F)     (DEG/KT/KT) (MB)    (FT/S) (FT/S/D)
UPR LAKE MARION  NOT AVBL
WINYAH BAY       1500   77     340/  5     1016.0S
LAKE MURRAY      1500   72      30/  2/  5 1017.6R
ACE BASIN NERRS  1500   80     270/  3     1017.0S
FORT PULASKI     1600   81     240/  5/  6 1016.8F
SAPELO ISLAND    1500   81     230/  9     1018.0S

$$

ANZ835-935-AMZ111-154-330-350-352-354-374-450-454-472-221700-
...C-MAN AND BUOY OBSERVATIONS...

STATION/POSITION TIME  TEMP    WIND        PRES    WAVE   SWELL
                       AIR SEA DIR/SP/G            HT/PER HT/PER/DIR
                 (UTC) (F)     (DEG/KT/KT) (MB)    (FT/S) (FT/S/D)
FOLLY BEACH CMAN 1500   81     300/  4/  6 1017.0F
BUOY 41004       1600   80 81  260/ 12/ 14 1016.2F   4/ 5   2/ 8
BUOY 41008       1600   79 83  230/ 12/ 14 1017.0F   2/ 4   2/ 90/ 9
5E ST. MARYS GA  1600      83                N/A     2/ 9
FRYING PAN BUOY  NOT AVBL
BUOY 41025       1600   76     330/ 10/ 14 1015.2R   5/ 8   5/130/ 8
CAPE LOOKOUT NC  1500   77      20/  8/ 10 1015.5R
BUOY 41002       1549   80 81  220/  4/  6 1018.5R   4/ 6   3/290/ 6
BUOY 41010       1600   81 84   40/  4/  6 1017.9S   4/ 8   3/ 70/ 8
BUOY 41012       NOT AVBL
ST AUGUSTINE FL  1600   80     110/  6/  7 1017.8F
CAPERS NEARSHORE 1500   81     300/  6/  6   N/A
FRIPP NEARSHORE  NOT AVBL


$$



USA.gov is the U.S. government's official web portal to all federal, state and local government web resources and services.